Weather History for Clarksville, TN

Change the Weather History Date:

Sunday, May 27, 2012

  Actual Average Record
Temperature  
Mean Temperature 80 °F -  
Max Temperature 93 °F - 93 °F (2012)
Min Temperature 66 °F - 37 °F (1961)
Degree Days  
Heating Degree Days 0    
Month to date heating degree days 12  
Since 1 July heating degree days 3114  
Cooling Degree Days 15    
Month to date cooling degree days 168  
Growing Degree Days 28 (Base 50)    
Moisture  
Dew Point 66 °F    
Average Humidity 65    
Maximum Humidity 93    
Minimum Humidity 36    
Precipitation  
Precipitation 0.00 in - 1.79 in (1973)
Month to date precipitation 1.42  
Sea Level Pressure  
Sea Level Pressure 30.02 in    
Wind  
Wind Speed 2 mph (South)    
Max Wind Speed 9 mph    
Max Gust Speed 15 mph    
Visibility 9 miles    
Events      
T = Trace of Precipitation, MM = Missing Value Source: NWS Daily Summary

Daily Weather History Graph

Daily Weather History Graph

Search for Another Location

Airport:

Trip Planner

Search our weather history database for the weather conditions in past years. The results will help you decide how hot, cold, wet, or windy it might be!

Date:

Astronomy

May. 27, 2012 Rise Set
Actual Time 5:34 AM CDT 7:59 PM CDT
Civil Twilight 5:04 AM CDT 8:29 PM CDT
Nautical Twilight 4:28 AM CDT 9:06 PM CDT
Astronomical Twilight 3:47 AM CDT 9:46 PM CDT
Moon 11:33 AM CDT (5/27) 12:11 AM CDT (5/27)
Length of Visible Light 15h 24m
Length of Day
14h 25m
Waxing Crescent, 38% of the Moon is Illuminated
May 27
Waxing Crescent
May 28
First Quarter
Jun 4
Full
Jun 11
Last Quarter
Jun 19
New

Hourly Weather History & Observations

Time (CDT) Temp. Heat Index Dew Point Humidity Pressure Visibility Wind Dir Wind Speed Gust Speed Precip Events Conditions
12:52 AM 72.0 °F - 66.9 °F 84% 30.04 in 10.0 mi Calm Calm - N/A   Clear
1:52 AM 69.1 °F - 66.0 °F 90% 30.04 in 8.0 mi ESE 4.6 mph - N/A   Clear
2:52 AM 69.1 °F - 66.9 °F 93% 30.04 in 8.0 mi Calm Calm - N/A   Clear
3:52 AM 68.0 °F - 66.0 °F 93% 30.04 in 5.0 mi Calm Calm - N/A   Clear
4:52 AM 68.0 °F - 66.0 °F 93% 30.05 in 6.0 mi Calm Calm - N/A   Clear
5:35 AM 66.2 °F - 66.2 °F 100% 30.07 in 2.0 mi Calm Calm - N/A   Clear
5:52 AM 66.9 °F - 64.9 °F 93% 30.06 in 3.0 mi Calm Calm - N/A   Clear
6:52 AM 71.1 °F - 68.0 °F 90% 30.07 in 4.0 mi Calm Calm - N/A   Clear
7:52 AM 75.0 °F - 68.0 °F 79% 30.08 in 8.0 mi Calm Calm - N/A   Clear
8:52 AM 82.0 °F 84.5 °F 66.9 °F 60% 30.08 in 10.0 mi Calm Calm - N/A   Clear
9:52 AM 84.9 °F 86.6 °F 64.9 °F 51% 30.07 in 10.0 mi Calm Calm - N/A   Clear
10:52 AM 88.0 °F 89.6 °F 64.9 °F 46% 30.06 in 10.0 mi WSW 6.9 mph - N/A   Clear
11:52 AM 90.0 °F 91.3 °F 64.0 °F 42% 30.05 in 10.0 mi Variable 4.6 mph - N/A   Clear
12:52 PM 91.0 °F 93.0 °F 64.9 °F 42% 30.04 in 10.0 mi Variable 4.6 mph - N/A   Clear
1:52 PM 91.0 °F 91.5 °F 62.1 °F 38% 30.02 in 10.0 mi Variable 3.5 mph - N/A   Clear
2:52 PM 91.9 °F 92.9 °F 63.0 °F 38% 29.99 in 10.0 mi WSW 5.8 mph - N/A   Clear
3:52 PM 91.9 °F 93.3 °F 64.0 °F 39% 29.98 in 10.0 mi Variable 3.5 mph - N/A   Clear
4:52 PM 91.0 °F 90.9 °F 61.0 °F 36% 29.98 in 10.0 mi South 3.5 mph - N/A   Clear
5:52 PM 90.0 °F 90.0 °F 61.0 °F 38% 29.96 in 10.0 mi SSE 4.6 mph - N/A   Clear
6:52 PM 88.0 °F 89.6 °F 64.9 °F 46% 29.96 in 10.0 mi Calm Calm - N/A   Clear
7:52 PM 84.9 °F 87.6 °F 66.9 °F 55% 29.95 in 10.0 mi Calm Calm - N/A   Clear
8:52 PM 79.0 °F - 68.0 °F 69% 29.95 in 10.0 mi Calm Calm - N/A   Clear
9:52 PM 77.0 °F - 68.0 °F 74% 29.96 in 10.0 mi Calm Calm - N/A   Clear
10:52 PM 75.9 °F - 69.1 °F 79% 29.96 in 10.0 mi Calm Calm - N/A   Clear
11:52 PM 73.9 °F - 69.1 °F 85% 29.95 in 10.0 mi Calm Calm - N/A   Clear